Location: Apeadero de Los Molinos-Guadarrama
(40.7091°N, 4.0689°W)
Time: 13:01:23
(UTC+00:00)

ISS - Pass Details

Date: 14 May 2021
Orbit: 417 x 422 km, 51.6° (Epoch: 18 June)

Event Time Altitude Azimuth Distance (km) Brightness Sun altitude
Rises 22:21:13 0° 260° (W) 2,357 0.3 -25.1°
Reaches altitude 10° 22:23:29 10° 271° (W) 1,497 -0.6 -25.3°
Maximum altitude 22:26:28 29° 334° (NNW) 800 -1.7 -25.5°
Drops below altitude 10° 22:29:29 10° 37° (NE) 1,505 -0.7 -25.8°
Sets 22:31:46 0° 49° (NE) 2,373 0.2 -26.0°
